time_stamp(utc),avg(mph),gust(mph),direction(deg),12m_air_temp(f),sonic_u(cm/s),sonic_v(cm/s),sonic_w(cm/s),pressure,2m_air_temp(f),pyranometer(W/m^2)
"2017-05-11 00:00:21+00",13.1,14.1,,53.5,487,-285,-3,1015.63,53.4,0
"2017-05-11 00:05:21+00",12.0,13.0,,53.5,476,-240,2,1015.86,53.4,0
"2017-05-11 00:10:21+00",12.3,13.3,,53.5,497,-222,6,1015.97,53.3,0
"2017-05-11 00:15:21+00",10.5,13.5,,53.5,419,-222,9,1015.98,53.3,0
"2017-05-11 00:20:21+00",12.3,14.3,,53.4,500,-217,0,1015.91,53.2,0
"2017-05-11 00:25:21+00",12.6,13.6,,53.5,501,-238,4,1015.82,53.2,0
"2017-05-11 00:30:21+00",13.5,14.5,,53.5,496,-329,-4,1015.89,53.2,0
"2017-05-11 00:35:21+00",12.7,14.7,,53.5,458,-320,-3,1015.91,53.2,0
"2017-05-11 00:40:21+00",10.6,12.6,,53.5,348,-301,19,1015.9,53.2,0
"2017-05-11 00:45:21+00",12.7,13.7,,53.5,434,-345,0,1015.84,53.2,0
"2017-05-11 00:50:21+00",13.2,15.2,,53.5,466,-334,-2,1015.9,53.2,0
"2017-05-11 00:55:21+00",11.5,13.5,,53.5,412,-288,7,1016.01,53.2,0
"2017-05-11 01:00:21+00",10.4,12.4,,53.5,366,-273,4,1016.22,53.1,0
"2017-05-11 01:05:21+00",10.3,11.3,,53.5,335,-301,0,1016.31,53.2,0
"2017-05-11 01:10:21+00",11.5,13.5,,53.5,403,-287,-7,1016.35,53.1,0
"2017-05-11 01:15:21+00",12.9,13.9,,53.5,492,-286,1,1016.31,53.1,0
"2017-05-11 01:20:21+00",10.8,12.8,,53.5,372,-290,21,1016.33,53.1,0
"2017-05-11 01:25:21+00",12.6,13.6,,53.5,453,-323,-6,1016.34,53.1,0
"2017-05-11 01:30:21+00",12.6,13.6,,53.5,464,-300,3,1016.4,53.1,0
"2017-05-11 01:35:21+00",11.5,12.5,,53.6,422,-277,2,1016.39,53.1,0
"2017-05-11 01:40:21+00",12.5,13.5,,53.5,428,-339,-6,1016.35,53.1,0
"2017-05-11 01:45:21+00",12.2,13.2,,53.5,419,-334,-5,1016.5,53.1,0
"2017-05-11 01:50:21+00",11.2,12.2,,53.5,386,-307,-3,1016.56,53.1,0
"2017-05-11 01:55:21+00",12.4,14.4,,53.5,424,-346,-8,1016.63,53.1,0
"2017-05-11 02:00:21+00",11.4,12.4,,53.5,389,-299,5,1016.59,53.1,0
"2017-05-11 02:05:21+00",11.3,12.3,,53.5,367,-333,0,1016.66,53,0
"2017-05-11 02:10:21+00",10.4,12.4,,53.6,322,-328,-4,1016.69,53,0
"2017-05-11 02:15:21+00",9.1,10.1,,53.5,281,-269,12,1016.67,53.1,0
"2017-05-11 02:20:21+00",10.0,11.0,,53.6,340,-271,1,1016.74,53,0
"2017-05-11 02:25:21+00",10.4,11.4,,53.6,371,-263,9,1016.58,52.9,0
"2017-05-11 02:30:21+00",10.1,11.1,,53.6,362,-249,-1,1016.45,52.9,0
"2017-05-11 02:35:21+00",10.0,12.0,,53.5,374,-232,-1,1016.42,52.8,0
"2017-05-11 02:40:21+00",10.4,11.4,,53.5,372,-274,-4,1016.48,52.8,0
"2017-05-11 02:45:21+00",9.1,10.1,,53.5,322,-230,8,1016.36,52.8,0
"2017-05-11 02:50:21+00",9.2,11.2,,53.4,350,-206,1,1016.25,52.7,0
"2017-05-11 02:55:21+00",11.4,12.4,,53.4,420,-267,-4,1016.29,52.6,0
"2017-05-11 03:00:21+00",8.7,10.7,,53.4,317,-211,8,1016.34,52.5,0
"2017-05-11 03:05:21+00",10.2,11.2,,53.5,396,-215,2,1016.25,52.5,0
"2017-05-11 03:10:21+00",9.2,11.2,,53.3,355,-181,7,1016.21,52.5,0
"2017-05-11 03:15:21+00",9.3,10.3,,53.3,357,-204,-8,1016.26,52.4,0
"2017-05-11 03:20:21+00",8.0,9.0,,53.2,310,-160,8,1016.23,52.4,0
"2017-05-11 03:25:21+00",9.2,11.2,,53.3,367,-173,6,1016.29,52.3,0
"2017-05-11 03:30:21+00",9.2,10.2,,53.3,342,-200,-1,1016.33,52.3,0
"2017-05-11 03:35:21+00",9.7,10.7,,53.4,363,-214,8,1016.34,52.2,0
"2017-05-11 03:40:21+00",9.0,11.0,,53.3,361,-183,0,1016.21,52.2,0
"2017-05-11 03:45:21+00",9.4,11.4,,53.3,374,-182,9,1016.29,52.2,0
"2017-05-11 03:50:21+00",8.7,9.7,,53.3,343,-179,-1,1016.3,52.2,0
"2017-05-11 03:55:21+00",8.0,10.0,,53.3,297,-193,7,1016.4,52.2,0
"2017-05-11 04:00:21+00",9.2,10.2,,53.3,350,-196,1,1016.43,52.2,0
"2017-05-11 04:05:21+00",8.8,10.8,,53.3,352,-164,0,1016.41,52.1,0
"2017-05-11 04:10:21+00",8.1,9.1,,53.3,321,-153,4,1016.43,52.1,0
"2017-05-11 04:15:21+00",9.5,10.5,,53.4,362,-206,8,1016.38,52.1,0
"2017-05-11 04:20:21+00",9.5,10.5,,53.4,367,-199,5,1016.39,52.1,0
"2017-05-11 04:25:21+00",9.2,10.2,,53.4,363,-190,1,1016.33,52.1,0
"2017-05-11 04:30:21+00",10.2,11.2,,53.4,403,-200,6,1016.28,52,0
"2017-05-11 04:35:21+00",9.5,11.5,,53.3,351,-213,3,1016.18,52,0
"2017-05-11 04:40:21+00",9.4,10.4,,53.3,343,-227,3,1016.1,51.9,0
"2017-05-11 04:45:21+00",9.3,10.3,,53.3,340,-219,5,1016.08,51.9,0
"2017-05-11 04:50:21+00",9.2,10.2,,53.3,346,-214,5,1015.97,51.8,0
"2017-05-11 04:55:21+00",8.8,10.8,,53.2,334,-196,3,1015.98,51.7,0
"2017-05-11 05:00:21+00",8.5,9.5,,53.3,307,-197,2,1016,51.7,0
"2017-05-11 05:05:21+00",9.3,10.3,,53.3,336,-220,5,1015.89,51.7,0
"2017-05-11 05:10:21+00",8.0,9.0,,53.2,288,-195,5,1015.84,51.8,0
"2017-05-11 05:15:21+00",7.8,8.8,,53.2,293,-163,5,1015.79,51.7,0
"2017-05-11 05:20:21+00",7.3,8.3,,53.2,236,-195,7,1015.8,51.6,0
"2017-05-11 05:25:21+00",7.6,8.6,,53.2,261,-200,4,1015.71,51.7,0
"2017-05-11 05:30:21+00",7.5,8.5,,53.2,263,-191,4,1015.66,51.7,0
"2017-05-11 05:35:21+00",6.9,7.9,,53.2,241,-173,4,1015.78,51.7,0
"2017-05-11 05:40:21+00",6.5,7.5,,53.2,214,-176,3,1015.82,51.6,0
"2017-05-11 05:45:21+00",6.8,7.8,,53.2,192,-211,-1,1015.77,51.6,0
"2017-05-11 05:50:21+00",6.5,7.5,,53.2,179,-215,-2,1015.8,51.6,0
"2017-05-11 05:55:21+00",6.5,7.5,,53.2,210,-181,4,1015.71,51.5,0
"2017-05-11 06:00:21+00",7.7,8.7,,53.2,246,-224,3,1015.65,51.3,0
"2017-05-11 06:05:21+00",7.7,7.7,,53.1,250,-211,2,1015.54,51.2,0
"2017-05-11 06:10:21+00",7.6,8.6,,53.1,259,-201,4,1015.43,51.1,0
"2017-05-11 06:15:21+00",7.9,8.9,,53.2,250,-222,2,1015.48,51,0
"2017-05-11 06:20:21+00",7.3,8.3,,53.3,258,-175,1,1015.39,50.9,0
"2017-05-11 06:25:21+00",6.0,7.0,,53.2,230,-120,5,1015.29,50.8,0
"2017-05-11 06:30:21+00",7.5,7.5,,53.3,304,-135,8,1015.33,50.6,0
"2017-05-11 06:35:21+00",7.7,7.7,,53.3,314,-129,6,1015.18,50.5,0
"2017-05-11 06:40:21+00",7.7,8.7,,53.3,312,-122,7,1015.2,50.6,0
"2017-05-11 06:45:21+00",7.1,7.1,,53.2,292,-111,6,1015.18,50.6,0
"2017-05-11 06:50:21+00",6.6,6.6,,53.2,276,-85,4,1015.27,50.7,0
"2017-05-11 06:55:21+00",7.0,8.0,,53.2,301,-54,10,1015.27,50.8,0
"2017-05-11 07:00:21+00",7.7,7.7,,53.3,337,-35,18,1015.16,50.8,0
"2017-05-11 07:05:21+00",7.4,8.4,,53.3,320,-50,19,1015.09,50.8,0
"2017-05-11 07:10:21+00",7.0,7.0,,53.1,299,-55,16,1015.04,50.7,0
"2017-05-11 07:15:21+00",6.2,6.2,,53.1,261,-69,8,1015.03,50.6,0
"2017-05-11 07:20:21+00",6.5,7.5,,53.1,274,-62,7,1014.96,50.5,0
"2017-05-11 07:25:21+00",6.3,6.3,,53,266,-51,13,1014.9,50.4,0
"2017-05-11 07:30:21+00",7.2,7.2,,53.1,310,-42,15,1014.95,50.3,0
"2017-05-11 07:35:21+00",7.4,8.4,,53.2,320,-36,20,1014.91,50.3,0
"2017-05-11 07:40:21+00",8.0,8.0,,53.3,347,-13,21,1014.92,50.2,0
"2017-05-11 07:45:21+00",7.1,7.1,,53.1,309,14,18,1015.03,50,0
"2017-05-11 07:50:21+00",7.0,7.0,,53.1,300,12,21,1015.07,50,0
"2017-05-11 07:55:21+00",6.1,6.1,,52.9,257,3,18,1014.96,49.7,0
"2017-05-11 08:00:21+00",5.4,6.4,,52.7,232,-8,8,1015.03,49.5,0
"2017-05-11 08:05:21+00",4.9,4.9,,52.6,204,0,10,1015.04,49.4,0
"2017-05-11 08:10:21+00",5.1,6.1,,52.7,215,4,12,1014.97,49.3,0
"2017-05-11 08:15:21+00",5.8,5.8,,52.8,249,10,15,1014.94,49.2,0
"2017-05-11 08:20:21+00",5.6,6.6,,52.8,235,28,18,1014.9,49.1,0
"2017-05-11 08:25:21+00",5.4,5.4,,52.9,225,36,15,1014.87,49.1,0
"2017-05-11 08:30:21+00",6.6,6.6,,53,279,57,20,1014.7,49,0
"2017-05-11 08:35:21+00",7.0,7.0,,53.1,295,76,22,1014.68,49,0
"2017-05-11 08:40:21+00",6.5,7.5,,53.1,274,77,21,1014.67,49,0
"2017-05-11 08:45:21+00",5.6,6.6,,53,237,71,21,1014.73,48.9,0
"2017-05-11 08:50:21+00",5.5,5.5,,52.9,218,87,6,1014.81,48.8,0
"2017-05-11 08:55:21+00",5.4,6.4,,52.7,228,79,16,1014.74,48.8,0
"2017-05-11 09:00:21+00",5.8,6.8,,52.9,227,97,2,1014.94,48.8,0
"2017-05-11 09:05:21+00",7.0,8.0,,52.7,269,139,20,1014.97,48.9,0
"2017-05-11 09:10:21+00",7.6,8.6,,52.6,284,171,21,1014.96,49.1,0
"2017-05-11 09:15:21+00",8.4,8.4,,52.7,320,180,24,1014.96,49.3,0
"2017-05-11 09:20:21+00",9.1,10.1,,52.7,348,189,25,1014.89,49.6,0
"2017-05-11 09:25:21+00",7.4,8.4,,52.3,278,164,23,1014.95,49.9,0
"2017-05-11 09:30:21+00",5.9,6.9,,51.9,171,167,12,1014.98,50.2,0
"2017-05-11 09:35:21+00",8.0,10.0,,51.8,213,259,11,1014.99,50.5,0
"2017-05-11 09:40:21+00",8.0,10.0,,51.1,213,247,20,1015.11,50.3,0
"2017-05-11 09:45:21+00",9.2,10.2,,50.8,220,322,5,1015.12,50.2,0
"2017-05-11 09:50:21+00",8.2,10.2,,51,241,239,5,1015.15,50.3,0
"2017-05-11 09:55:21+00",9.4,10.4,,51.7,259,289,12,1015.22,50.7,0
"2017-05-11 10:00:21+00",11.7,13.7,,52.2,419,290,22,1015.16,51.1,0
"2017-05-11 10:05:21+00",12.3,15.3,,52.5,458,288,37,1015.23,51.4,0
"2017-05-11 10:10:21+00",11.0,13.0,,52.3,431,227,26,1015.26,51.6,0
"2017-05-11 10:15:21+00",14.6,16.6,,52.4,568,316,30,1015.12,51.7,0
"2017-05-11 10:20:21+00",12.9,14.9,,52.6,507,261,30,1015.1,51.9,0
"2017-05-11 10:25:21+00",11.7,15.7,,52.5,477,213,30,1015.14,52,0
"2017-05-11 10:30:21+00",14.3,17.3,,52.6,592,245,30,1014.99,52,0
"2017-05-11 10:35:21+00",13.7,15.7,,52.6,560,259,30,1015,52.1,0
"2017-05-11 10:40:21+00",14.6,17.6,,52.6,630,211,18,1014.97,52.3,0.4
"2017-05-11 10:45:21+00",14.3,17.3,,52.7,600,234,13,1014.98,52.4,1.3
"2017-05-11 10:50:21+00",13.9,15.9,,52.9,601,178,36,1014.93,52.9,52.5
"2017-05-11 10:55:21+00",13.9,16.9,,53.1,589,219,24,1014.99,53.7,61.6
"2017-05-11 11:00:21+00",16.5,18.5,,53.2,700,278,10,1014.91,54.4,70.8
"2017-05-11 11:05:21+00",14.6,16.6,,53.3,633,202,37,1014.9,54.8,81
"2017-05-11 11:10:21+00",13.2,15.2,,53.3,559,202,43,1014.84,54.6,55.8
"2017-05-11 11:15:21+00",11.1,13.1,,53.5,483,104,53,1014.89,54.7,41.8
"2017-05-11 11:20:21+00",13.8,15.8,,53.2,580,219,32,1015.03,54.3,31.8
"2017-05-11 11:25:21+00",12.6,15.6,,53.3,526,210,40,1015.01,54.1,43.9
"2017-05-11 11:30:21+00",14.9,16.9,,53.3,645,186,37,1014.93,54.1,54.2
"2017-05-11 11:35:21+00",14.1,16.1,,53.4,611,214,35,1014.94,54.2,61.4
"2017-05-11 11:40:21+00",15.1,17.1,,53.5,661,147,31,1014.95,54.3,73.4
"2017-05-11 11:45:21+00",15.0,18.0,,53.5,648,201,36,1014.83,54.4,85.4
"2017-05-11 11:50:21+00",15.8,16.8,,53.4,674,218,22,1014.61,54.4,100.9
"2017-05-11 11:55:21+00",14.8,16.8,,53.5,631,242,40,1014.67,54.6,96.7
"2017-05-11 12:00:21+00",16.2,19.2,,53.6,698,247,35,1014.59,54.7,118.2
"2017-05-11 12:05:21+00",15.8,18.8,,53.6,694,148,34,1014.53,54.8,106.2
"2017-05-11 12:10:21+00",13.1,16.1,,53.7,572,143,50,1014.58,55.1,141.4
"2017-05-11 12:15:21+00",14.4,16.4,,53.8,623,163,28,1014.51,55.3,108.1
"2017-05-11 12:20:21+00",14.8,15.8,,53.7,639,230,34,1014.5,55,95.1
"2017-05-11 12:25:21+00",14.8,16.8,,53.8,643,207,43,1014.58,54.9,93.8
"2017-05-11 12:30:21+00",16.7,18.7,,53.9,723,205,32,1014.63,54.8,92.3
"2017-05-11 12:35:21+00",16.1,19.1,,54.2,707,144,35,1014.66,54.9,91.6
"2017-05-11 12:40:21+00",14.2,16.2,,54.2,617,161,39,1014.74,55,91.9
"2017-05-11 12:45:21+00",16.9,18.9,,54,738,154,16,1014.63,55.1,115.1
"2017-05-11 12:50:21+00",15.1,17.1,,54,656,122,49,1014.61,55.4,125.4
"2017-05-11 12:55:21+00",15.2,17.2,,53.9,661,214,49,1014.64,55.3,104.7
"2017-05-11 13:00:21+00",14.2,16.2,,54,623,119,31,1014.63,55.4,125.4
"2017-05-11 13:05:21+00",14.9,16.9,,53.7,652,207,25,1014.68,55.4,133.5
"2017-05-11 13:10:21+00",16.7,17.7,,53.8,739,102,39,1014.57,55.4,141.9
"2017-05-11 13:15:21+00",16.8,18.8,,53.8,737,156,25,1014.57,55.6,231.1
"2017-05-11 13:20:21+00",16.1,18.1,,54,691,247,15,1014.5,56.4,269.4
"2017-05-11 13:25:21+00",16.1,18.1,,54.1,708,159,36,1014.53,56.8,249.4
"2017-05-11 13:30:21+00",12.9,15.9,,54.1,559,152,51,1014.48,56.8,194.8
"2017-05-11 13:35:21+00",13.4,14.4,,54.3,598,50,70,1014.42,56.7,161.1
"2017-05-11 13:40:21+00",18.5,19.5,,53.8,815,157,25,1014.16,56.3,170.9
"2017-05-11 13:45:21+00",16.1,19.1,,53.7,695,231,32,1014.2,56,163
"2017-05-11 13:50:21+00",15.9,17.9,,53.5,705,144,53,1014.44,55.8,174.2
"2017-05-11 13:55:21+00",14.2,17.2,,53.6,620,139,45,1014.57,55.8,196.4
"2017-05-11 14:00:21+00",15.5,17.5,,53.6,674,168,32,1014.53,56.2,298.9
"2017-05-11 14:05:21+00",15.9,17.9,,53.7,713,47,25,1014.4,56.5,287
"2017-05-11 14:10:21+00",14.4,15.4,,53.9,629,153,13,1014.42,56.7,273.7
"2017-05-11 14:15:21+00",14.0,15.0,,54,619,73,66,1014.43,57.2,311.7
"2017-05-11 14:20:21+00",14.0,16.0,,53.9,623,106,26,1014.42,57.5,311.2
"2017-05-11 14:25:21+00",15.1,17.1,,53.9,667,79,40,1014.38,57.6,279.1
"2017-05-11 14:30:21+00",14.8,15.8,,53.7,642,159,5,1014.37,56.9,216.6
"2017-05-11 14:35:21+00",14.6,16.6,,53.8,632,194,33,1014.24,56.9,165.4
"2017-05-11 14:40:21+00",13.8,16.8,,53.8,605,157,48,1014.25,56.7,169.6
"2017-05-11 14:45:21+00",14.3,16.3,,53.9,637,75,33,1014.29,56.4,152.1
"2017-05-11 14:50:21+00",15.3,16.3,,53.8,657,187,16,1014.3,56.3,162.3
"2017-05-11 14:55:21+00",14.7,16.7,,53.9,649,119,36,1014.29,56.1,120.7
"2017-05-11 15:00:21+00",15.3,16.3,,53.8,657,195,24,1014.46,55.7,90.9
"2017-05-11 15:05:21+00",14.3,16.3,,53.9,620,179,24,1014.51,55.6,77.9
"2017-05-11 15:10:21+00",14.7,16.7,,53.8,639,194,27,1014.5,55.5,65.7
"2017-05-11 15:15:21+00",13.7,14.7,,53.8,600,134,18,1014.48,55.3,65.7
"2017-05-11 15:20:21+00",13.7,15.7,,53.8,587,216,18,1014.4,55.3,54.1
"2017-05-11 15:25:21+00",14.5,16.5,,53.8,634,150,34,1014.26,54.9,50.4
"2017-05-11 15:30:21+00",13.1,15.1,,53.7,574,139,33,1014.12,54.7,48.3
"2017-05-11 15:35:21+00",15.7,16.7,,53.6,688,137,32,1014.09,54.6,50.9
"2017-05-11 15:40:21+00",12.8,14.8,,53.6,561,109,50,1014.03,54.7,62.5
"2017-05-11 15:45:21+00",14.4,17.4,,53.6,635,129,54,1014.09,54.8,68.7
"2017-05-11 15:50:21+00",14.3,16.3,,53.7,626,157,35,1014.09,54.9,78.6
"2017-05-11 15:55:21+00",16.1,18.1,,53.8,690,248,10,1014.1,55,83.3
"2017-05-11 16:00:21+00",12.4,14.4,,53.9,547,128,68,1014.08,55.2,90.5
"2017-05-11 16:05:21+00",12.5,14.5,,54,514,203,78,1014.07,55.4,96.6
"2017-05-11 16:10:21+00",12.0,14.0,,54.2,514,172,32,1013.97,55.7,103.3
"2017-05-11 16:15:21+00",14.2,15.2,,54.1,633,70,39,1014.02,55.6,86.4
"2017-05-11 16:20:21+00",14.1,16.1,,54,613,190,21,1014.06,55.4,84.3
"2017-05-11 16:25:21+00",12.2,14.2,,54.2,545,75,36,1013.97,55.5,90
"2017-05-11 16:30:21+00",12.5,15.5,,54.2,552,123,47,1013.83,55.6,91.3
"2017-05-11 16:35:21+00",14.6,15.6,,54.2,636,124,14,1013.89,55.6,95.9
"2017-05-11 16:40:21+00",13.4,14.4,,54.4,576,158,36,1013.82,55.6,92.3
"2017-05-11 16:45:21+00",17.0,19.0,,54.3,739,190,24,1013.7,55.8,100.6
"2017-05-11 16:50:21+00",15.8,17.8,,54.4,674,256,19,1013.69,55.7,114.6
"2017-05-11 16:55:21+00",14.9,16.9,,54.4,647,216,20,1013.76,55.8,111.9
"2017-05-11 17:00:21+00",13.6,15.6,,54.5,599,165,45,1013.75,55.8,103
"2017-05-11 17:05:21+00",15.5,17.5,,54.4,687,117,45,1013.8,55.8,106.4
"2017-05-11 17:10:21+00",14.1,15.1,,54.2,627,83,28,1013.87,55.6,107
"2017-05-11 17:15:21+00",14.8,15.8,,54.3,648,144,42,1013.8,55.7,104.9
"2017-05-11 17:20:21+00",17.0,19.0,,54,761,88,29,1013.7,55.6,100.2
"2017-05-11 17:25:21+00",17.0,19.0,,53.6,753,123,16,1013.6,55.3,97.7
"2017-05-11 17:30:21+00",17.1,19.1,,53.6,759,128,31,1013.6,55.1,99.2
"2017-05-11 17:35:21+00",14.8,17.8,,53.8,649,172,49,1013.58,55.3,99.2
"2017-05-11 17:40:21+00",14.1,17.1,,53.9,646,29,47,1013.66,55.4,103.2
"2017-05-11 17:45:21+00",16.1,18.1,,53.6,715,61,29,1013.54,55.2,128
"2017-05-11 17:50:21+00",15.8,17.8,,53.6,707,52,28,1013.66,55.2,134.1
"2017-05-11 17:55:21+00",15.6,17.6,,53.6,661,246,25,1013.58,55.4,155
"2017-05-11 18:00:21+00",16.7,18.7,,53.5,727,195,35,1013.59,55.5,144
"2017-05-11 18:05:21+00",14.8,16.8,,53.3,665,15,17,1013.47,55.2,146.4
"2017-05-11 18:10:21+00",14.7,16.7,,53.3,653,69,44,1013.49,55.2,131.3
"2017-05-11 18:15:21+00",15.2,17.2,,53.1,681,56,15,1013.41,55.1,133.3
"2017-05-11 18:20:21+00",15.8,16.8,,53.2,699,123,29,1013.47,55.4,183.4
"2017-05-11 18:25:21+00",15.5,16.5,,53.1,688,97,27,1013.49,55.2,173.3
"2017-05-11 18:30:21+00",16.7,18.7,,53.1,743,62,18,1013.32,55.3,158.4
"2017-05-11 18:35:21+00",15.0,18.0,,53.1,663,107,34,1013.36,55.3,119.8
"2017-05-11 18:40:21+00",13.3,15.3,,53.1,582,144,32,1013.39,55.1,116.7
"2017-05-11 18:45:21+00",14.5,16.5,,53.2,641,71,25,1013.39,55.3,130.3
"2017-05-11 18:50:21+00",14.6,15.6,,53.2,622,199,15,1013.39,55.2,136.2
"2017-05-11 18:55:21+00",15.6,16.6,,53.2,685,133,16,1013.32,55.4,164.8
"2017-05-11 19:00:21+00",13.3,15.3,,53.3,594,78,40,1013.38,55.5,173
"2017-05-11 19:05:21+00",13.7,16.7,,53.5,606,102,93,1013.33,55.8,186.5
"2017-05-11 19:10:21+00",14.2,16.2,,53.8,631,-29,59,1013.32,56.1,208.1
"2017-05-11 19:15:21+00",15.9,18.9,,53.6,715,18,26,1013.17,56,147.4
"2017-05-11 19:20:21+00",17.1,18.1,,53.4,775,42,21,1013.19,55.6,115.6
"2017-05-11 19:25:21+00",16.0,17.0,,53.4,701,70,33,1013.14,55.4,100.2
"2017-05-11 19:30:21+00",16.2,18.2,,53.5,734,22,35,1013.15,55.2,96.8
"2017-05-11 19:35:21+00",16.5,18.5,,53.3,735,80,53,1013.02,55,87.1
"2017-05-11 19:40:21+00",17.2,20.2,,53.3,777,10,32,1013.06,54.7,80.8
"2017-05-11 19:45:21+00",17.6,19.6,,53.4,785,83,53,1013.01,54.8,82.7
"2017-05-11 19:50:21+00",18.2,20.2,,53,803,140,37,1013.07,54.6,87.8
"2017-05-11 19:55:21+00",16.2,19.2,,53.4,721,107,65,1013.07,54.7,94
"2017-05-11 20:00:21+00",17.3,20.3,,53.3,757,135,48,1013.09,54.7,107.8
"2017-05-11 20:05:21+00",19.3,21.3,,53.1,867,49,20,1013.14,54.7,114.8
"2017-05-11 20:10:21+00",15.4,18.4,,53.1,689,58,54,1013.17,54.7,114.8
"2017-05-11 20:15:21+00",17.3,19.3,,53.2,756,170,20,1013.26,54.9,118.1
"2017-05-11 20:20:21+00",17.1,19.1,,53,767,14,13,1013.2,54.9,92.4
"2017-05-11 20:25:21+00",14.7,17.7,,53.2,661,47,27,1013.35,54.7,72.7
"2017-05-11 20:30:21+00",15.2,18.2,,53.3,677,61,53,1013.65,54.6,62.6
"2017-05-11 20:35:21+00",15.8,17.8,,53,712,-32,25,1013.65,54.3,61.6
"2017-05-11 20:40:21+00",15.4,17.4,,53.1,690,63,15,1013.76,54.3,40.3
"2017-05-11 20:45:21+00",14.7,15.7,,53.1,649,88,27,1013.79,54.1,17.2
"2017-05-11 20:50:21+00",14.1,16.1,,52.9,626,86,51,1013.78,53.8,5.8
"2017-05-11 20:55:21+00",14.0,15.0,,52.9,618,87,17,1013.89,53.6,5.3
"2017-05-11 21:00:21+00",12.0,13.0,,52.9,534,35,25,1013.8,53.6,7.4
"2017-05-11 21:05:21+00",14.0,16.0,,52.8,624,-20,14,1013.73,53.5,0
"2017-05-11 21:10:21+00",12.2,14.2,,52.9,543,-50,26,1013.73,53.3,0
"2017-05-11 21:15:21+00",14.2,16.2,,52.7,632,-50,12,1013.54,53.2,0
"2017-05-11 21:20:21+00",13.2,15.2,,52.9,591,-65,12,1013.56,53.3,0
"2017-05-11 21:25:21+00",13.7,15.7,,52.9,611,0,36,1013.64,53.3,2.4
"2017-05-11 21:30:21+00",13.1,14.1,,52.9,588,-54,15,1013.67,53.3,2.9
"2017-05-11 21:35:21+00",12.8,13.8,,52.9,569,13,33,1013.74,53.3,2
"2017-05-11 21:40:21+00",11.2,12.2,,52.9,491,-89,2,1013.8,53.3,1.7
"2017-05-11 21:45:21+00",13.7,14.7,,52.9,609,-19,17,1013.86,53.3,5.1
"2017-05-11 21:50:21+00",12.2,13.2,,52.9,540,-79,16,1013.86,53.4,4.2
"2017-05-11 21:55:21+00",13.0,16.0,,53,574,-75,19,1013.76,53.5,14.5
"2017-05-11 22:00:21+00",11.8,12.8,,53,520,-69,2,1013.74,53.5,21.3
"2017-05-11 22:05:21+00",13.5,14.5,,53.1,596,-89,4,1013.73,53.6,10.9
"2017-05-11 22:10:21+00",12.3,13.3,,53.1,548,-54,0,1013.73,53.6,14.5
"2017-05-11 22:15:21+00",13.6,15.6,,53.2,611,-50,15,1013.71,53.6,4.6
"2017-05-11 22:20:21+00",13.1,15.1,,53.2,582,36,37,1013.66,53.6,1.3
"2017-05-11 22:25:21+00",13.4,14.4,,53.2,595,-73,19,1013.7,53.6,4.6
"2017-05-11 22:30:21+00",13.7,15.7,,53.2,612,-13,15,1013.75,53.6,3.2
"2017-05-11 22:35:21+00",13.7,14.7,,53.1,607,-51,17,1013.75,53.5,2.3
"2017-05-11 22:40:21+00",12.6,13.6,,53.2,548,-112,13,1013.7,53.5,1.7
"2017-05-11 22:45:21+00",14.0,15.0,,53.1,627,48,15,1013.7,53.5,1.5
"2017-05-11 22:50:21+00",10.4,13.4,,53.2,466,-21,51,1013.7,53.5,3.6
"2017-05-11 22:55:21+00",11.4,12.4,,53.2,504,63,19,1014.14,53.5,3.8
"2017-05-11 23:00:21+00",12.2,13.2,,53.2,539,30,23,1014.21,53.5,0.2
"2017-05-11 23:05:21+00",10.2,12.2,,53.2,455,6,37,1014.21,53.5,0
"2017-05-11 23:10:21+00",11.3,13.3,,53.1,500,2,29,1014.14,53.3,0
"2017-05-11 23:15:21+00",13.6,15.6,,53,603,62,24,1014.21,53.2,0
"2017-05-11 23:20:21+00",11.2,14.2,,53,501,49,45,1014.28,53.1,0
"2017-05-11 23:25:21+00",12.4,14.4,,52.9,548,58,19,1014.41,53,0
"2017-05-11 23:30:21+00",11.9,13.9,,52.9,531,25,45,1014.44,52.9,0
"2017-05-11 23:35:21+00",15.3,16.3,,52.8,672,118,26,1014.31,52.9,0
"2017-05-11 23:40:21+00",14.5,16.5,,52.7,644,60,32,1014.42,52.8,0
"2017-05-11 23:45:21+00",14.0,15.0,,52.6,621,65,31,1014.67,52.6,0
"2017-05-11 23:50:21+00",14.4,15.4,,52.5,627,133,29,1014.59,52.5,0
"2017-05-11 23:55:21+00",13.6,15.6,,52.5,604,63,34,1014.56,52.3,0
